Garrison, ND

4:37 AM CST on January 21, 2017 (GMT -0600)
Garrison

Weather History for KN60 - March, 2014

Change the Weather History Date:

Monday, March 31, 2014

  Actual Average Record
Temperature  
Mean Temperature 15 °F -  
Max Temperature 20 °F - 72 °F (2015)
Min Temperature 9 °F - 9 °F (2014)
Degree Days  
Heating Degree Days 50    
Month to date heating degree days 1255  
Cooling Degree Days 0    
Month to date cooling degree days 0  
Year to date cooling degree days 0  
Moisture  
Dew Point 7 °F    
Average Humidity 70    
Maximum Humidity 88    
Minimum Humidity 51    
Precipitation  
Precipitation 0.48 in - 0.48 in (2014)
Month to date precipitation 1.18  
Year to date precipitation 2.06  
Sea Level Pressure  
Sea Level Pressure 30.11 in    
Wind  
Wind Speed 22 mph (North)    
Max Wind Speed 33 mph    
Max Gust Speed 39 mph    
T = Trace of Precipitation, MM = Missing Value Source: NWS Daily Summary

Daily Weather History Graph

Daily Weather History Graph

Search for Another Location

Airport or City:

Trip Planner

Search our weather history database for the weather conditions in past years. The results will help you decide how hot, cold, wet, or windy it might be!

Date:

Astronomy

Mar. 31, 2014 Rise Set
Actual Time 7:26 AM CDT 8:14 PM CDT
Civil Twilight 6:55 AM CDT 8:45 PM CDT
Nautical Twilight 6:17 AM CDT 9:22 PM CDT
Astronomical Twilight 5:38 AM CDT 10:02 PM CDT
Moon 7:46 AM CDT (3/31) 9:42 PM CDT (3/31)
Length of Visible Light 13h 50m
Length of Day
12h 48m
New Moon, 1% of the Moon is Illuminated
Mar 31
New Moon
Apr 7
First Quarter
Apr 15
Full
Apr 22
Last Quarter
Apr 29
New

Hourly Weather History & Observations

Time (CDT) Temp. Windchill Dew Point Humidity Pressure Visibility Wind Dir Wind Speed Gust Speed Precip Events Conditions
12:52 AM 19.9 °F 3.2 °F 16.0 °F 85% 29.98 in - NE 23.0 mph 39.1 mph 0.05 in   Unknown
1:52 AM 19.0 °F 3.2 °F 15.1 °F 85% 29.97 in - NNE 19.6 mph 29.9 mph 0.02 in   Unknown
2:52 AM 18.0 °F 1.7 °F 14.0 °F 84% 29.99 in - NE 19.6 mph 29.9 mph 0.04 in   Unknown
3:52 AM 16.0 °F 0.1 °F 12.9 °F 88% 30.00 in - NNE 17.3 mph 26.5 mph 0.11 in   Unknown
4:52 AM 16.0 °F -0.9 °F 12.0 °F 84% 30.03 in - NNE 19.6 mph 28.8 mph 0.09 in   Unknown
5:52 AM 12.0 °F -7.7 °F 8.1 °F 84% 30.04 in - NNE 24.2 mph 34.5 mph 0.12 in   Unknown
6:52 AM 10.9 °F -8.3 °F 7.0 °F 84% 30.06 in - NNE 21.9 mph 33.4 mph 0.05 in   Unknown
7:52 AM 10.0 °F -7.1 °F 6.1 °F 84% 30.10 in - North 16.1 mph 28.8 mph 0.01 in   Unknown
8:52 AM 9.0 °F -7.9 °F 5.0 °F 84% 30.12 in - North 15.0 mph 29.9 mph 0.03 in   Unknown
9:52 AM 10.0 °F -8.1 °F 5.0 °F 80% 30.12 in - North 18.4 mph 31.1 mph 0.01 in   Unknown
10:52 AM 12.0 °F -4.0 °F 5.0 °F 73% 30.12 in - North 15.0 mph 28.8 mph N/A   Unknown
11:52 AM 14.0 °F -3.0 °F 3.9 °F 64% 30.12 in - North 18.4 mph 33.4 mph N/A   Unknown
12:52 PM 15.1 °F -5.3 °F 6.1 °F 68% 30.12 in - North 29.9 mph 39.1 mph N/A   Unknown
1:52 PM 18.0 °F -0.5 °F 8.1 °F 65% 30.14 in - North 26.5 mph 38.0 mph N/A   Unknown
2:52 PM 19.0 °F 0.3 °F 8.1 °F 62% 30.11 in - North 28.8 mph 36.8 mph N/A   Unknown
3:52 PM 19.0 °F 0.6 °F 6.1 °F 57% 30.12 in - North 27.6 mph 35.7 mph N/A   Unknown
4:52 PM 19.9 °F 2.2 °F 9.0 °F 62% 30.12 in - North 26.5 mph 39.1 mph N/A   Unknown
5:52 PM 19.9 °F 2.2 °F 7.0 °F 57% 30.15 in - North 26.5 mph 34.5 mph N/A   Unknown
6:52 PM 19.9 °F 5.2 °F 5.0 °F 52% 30.17 in - North 17.3 mph 31.1 mph N/A   Unknown
7:52 PM 18.0 °F 4.8 °F 3.9 °F 54% 30.20 in - North 12.7 mph 21.9 mph N/A   Unknown
8:52 PM 16.0 °F 2.9 °F 3.0 °F 57% 30.21 in - North 11.5 mph - N/A   Unknown
9:52 PM 14.0 °F -2.0 °F 1.9 °F 59% 30.22 in - North 16.1 mph - N/A   Unknown
10:52 PM 12.9 °F -3.9 °F 1.9 °F 62% 30.22 in - North 17.3 mph - N/A   Unknown
11:52 PM 12.0 °F -2.7 °F 1.0 °F 61% 30.22 in - North 12.7 mph - N/A   Unknown